When you browse on this site, cookies collect data to enhance your experience and personalize the content and advertising you see.
Visit our Privacy Policy to learn more. By continuing to use the site, you agree to this use of cookies and data.
  • In Sweden
  • List of Countries
  • For 7 days
  • Water Temperature
  • Weather Map
  • Weather Widgets
  • user-avatar
    Login

    Hourly Weather Mostar

    Today, 28 March, Saturday

    Time Temperature Precipitation Wind Pressure Humidity
    00:00 +10°C° 0 mm 1 mps 754 mmHg 85%
    01:00 +9°C° 0 mm 1 mps 754 mmHg 84%
    02:00 +9°C° 0 mm 1 mps 754 mmHg 84%
    03:00 +9°C° 0 mm 1 mps 754 mmHg 84%
    04:00 +8°C° 0 mm 1 mps 753 mmHg 84%
    05:00 +8°C° 0 mm 1 mps 753 mmHg 82%
    06:00 +9°C° 0 mm 1 mps 753 mmHg 80%
    07:00 +9°C° 0 mm 2 mps 753 mmHg 77%
    08:00 +11°C° 0 mm 1 mps 753 mmHg 71%
    09:00 +13°C° 0 mm 1 mps 753 mmHg 66%
    10:00 +15°C° 0 mm 1 mps 753 mmHg 60%
    11:00 +15°C° 0 mm 1 mps 753 mmHg 59%
    12:00 +16°C° 0 mm 1 mps 752 mmHg 58%
    13:00 +16°C° 0 mm 2 mps 752 mmHg 57%
    14:00 +16°C° 0.1 mm 2 mps 752 mmHg 60%
    15:00 +15°C° 0.1 mm 2 mps 752 mmHg 63%
    16:00 +15°C° 0.1 mm 2 mps 752 mmHg 66%
    17:00 +14°C° 0.1 mm 2 mps 752 mmHg 72%
    18:00 +12°C° 0.1 mm 1 mps 752 mmHg 79%
    19:00 +11°C° 0.1 mm 1 mps 752 mmHg 85%
    20:00 +11°C° 0 mm 1 mps 752 mmHg 85%
    21:00 +10°C° 0 mm 1 mps 753 mmHg 85%
    22:00 +10°C° 0 mm 1 mps 753 mmHg 85%
    23:00 +10°C° 0 mm 1 mps 753 mmHg 85%

    Tomorrow, 29 March, Sunday

    Time Temperature Precipitation Wind Pressure Humidity
    00:00 +10°C° 0 mm 1 mps 753 mmHg 85%
    01:00 +9°C° 0 mm 1 mps 753 mmHg 85%
    02:00 +9°C° 0 mm 1 mps 753 mmHg 84%
    03:00 +9°C° 0 mm 1 mps 753 mmHg 84%
    04:00 +9°C° 0 mm 1 mps 753 mmHg 83%
    05:00 +9°C° 0 mm 1 mps 753 mmHg 81%
    06:00 +10°C° 0 mm 1 mps 752 mmHg 78%
    07:00 +10°C° 0 mm 1 mps 752 mmHg 76%
    08:00 +12°C° 0 mm 1 mps 752 mmHg 69%
    09:00 +14°C° 0 mm 1 mps 752 mmHg 62%
    10:00 +15°C° 0 mm 0 mps 752 mmHg 55%
    11:00 +18°C° 0 mm 1 mps 752 mmHg 53%
    12:00 +18°C° 0 mm 1 mps 752 mmHg 52%
    13:00 +18°C° 0 mm 2 mps 751 mmHg 50%
    14:00 +17°C° 0.1 mm 2 mps 751 mmHg 53%
    15:00 +17°C° 0.1 mm 2 mps 751 mmHg 57%
    16:00 +16°C° 0.1 mm 2 mps 751 mmHg 61%
    17:00 +15°C° 0.1 mm 1 mps 751 mmHg 68%
    18:00 +13°C° 0.1 mm 1 mps 751 mmHg 75%
    19:00 +11°C° 0.1 mm 0 mps 751 mmHg 82%
    20:00 +10°C° 0 mm 0 mps 751 mmHg 82%
    21:00 +11°C° 0 mm 1 mps 752 mmHg 82%
    22:00 +11°C° 0 mm 1 mps 752 mmHg 82%
    23:00 +11°C° 0 mm 1 mps 752 mmHg 82%

    Day after tomorrow, 30 March, Monday

    Time Temperature Precipitation Wind Pressure Humidity
    00:00 +10°C° 0 mm 1 mps 751 mmHg 82%
    01:00 +10°C° 0 mm 1 mps 751 mmHg 81%
    02:00 +10°C° 0 mm 1 mps 751 mmHg 81%
    03:00 +10°C° 0 mm 1 mps 751 mmHg 81%
    04:00 +9°C° 0 mm 1 mps 751 mmHg 81%
    05:00 +10°C° 0 mm 1 mps 751 mmHg 79%
    06:00 +9°C° 0 mm 2 mps 751 mmHg 77%
    07:00 +10°C° 0 mm 2 mps 751 mmHg 76%
    08:00 +13°C° 0 mm 2 mps 751 mmHg 70%
    09:00 +14°C° 0 mm 2 mps 751 mmHg 64%
    10:00 +16°C° 0 mm 2 mps 752 mmHg 58%
    11:00 +16°C° 0 mm 2 mps 751 mmHg 55%
    12:00 +17°C° 0 mm 3 mps 751 mmHg 53%
    13:00 +18°C° 0 mm 3 mps 751 mmHg 50%
    14:00 +17°C° 0 mm 3 mps 751 mmHg 52%
    15:00 +17°C° 0 mm 3 mps 751 mmHg 54%
    16:00 +15°C° 0 mm 4 mps 750 mmHg 56%
    17:00 +14°C° 0 mm 4 mps 751 mmHg 61%
    18:00 +12°C° 0 mm 4 mps 751 mmHg 65%
    19:00 +10°C° 0 mm 4 mps 751 mmHg 70%
    20:00 +8°C° 0 mm 4 mps 752 mmHg 72%
    21:00 +8°C° 0 mm 4 mps 752 mmHg 73%
    22:00 +7°C° 0 mm 4 mps 753 mmHg 75%
    23:00 +7°C° 0 mm 4 mps 753 mmHg 75%

    31 March, Tuesday

    Time Temperature Precipitation Wind Pressure Humidity
    00:00 +6°C° 0 mm 4 mps 753 mmHg 74%
    01:00 +6°C° 0 mm 4 mps 753 mmHg 74%
    02:00 +6°C° 0 mm 4 mps 753 mmHg 74%
    03:00 +6°C° 0 mm 4 mps 753 mmHg 73%
    04:00 +5°C° 0 mm 3 mps 753 mmHg 73%
    05:00 +6°C° 0 mm 4 mps 754 mmHg 71%
    06:00 +6°C° 0 mm 4 mps 754 mmHg 69%
    07:00 +6°C° 0 mm 4 mps 754 mmHg 67%
    08:00 +7°C° 0 mm 4 mps 754 mmHg 62%
    09:00 +9°C° 0 mm 3 mps 755 mmHg 58%
    10:00 +10°C° 0 mm 3 mps 755 mmHg 53%
    11:00 +10°C° 0 mm 3 mps 755 mmHg 56%
    12:00 +10°C° 0 mm 3 mps 755 mmHg 60%
    13:00 +11°C° 0 mm 3 mps 755 mmHg 63%
    14:00 +10°C° 0 mm 3 mps 755 mmHg 65%
    15:00 +10°C° 0 mm 3 mps 755 mmHg 67%
    16:00 +9°C° 0 mm 3 mps 755 mmHg 69%
    17:00 +8°C° 0 mm 3 mps 755 mmHg 70%
    18:00 +7°C° 0 mm 3 mps 756 mmHg 71%
    19:00 +7°C° 0 mm 3 mps 756 mmHg 71%
    20:00 +5°C° 0.2 mm 4 mps 756 mmHg 76%
    21:00 +3°C° 0.2 mm 4 mps 757 mmHg 80%
    22:00 +1°C° 0.2 mm 4 mps 757 mmHg 84%
    23:00 +1°C° 0.3 mm 4 mps 757 mmHg 84%

    1 April, Wednesday

    Time Temperature Precipitation Wind Pressure Humidity
    00:00 +1°C° 0.3 mm 4 mps 757 mmHg 83%
    01:00 0°C° 0.3 mm 4 mps 757 mmHg 82%
    02:00 0°C° 0 mm 4 mps 757 mmHg 80%
    03:00 0°C° 0 mm 4 mps 757 mmHg 77%
    04:00 0°C° 0 mm 4 mps 757 mmHg 74%
    05:00 0°C° 0 mm 4 mps 757 mmHg 70%
    06:00 +1°C° 0 mm 4 mps 757 mmHg 66%
    07:00 +1°C° 0 mm 5 mps 757 mmHg 62%
    08:00 +2°C° 0 mm 5 mps 757 mmHg 56%
    09:00 +3°C° 0 mm 5 mps 757 mmHg 50%
    10:00 +5°C° 0 mm 5 mps 757 mmHg 44%
    11:00 +6°C° 0 mm 4 mps 757 mmHg 43%
    12:00 +7°C° 0 mm 4 mps 757 mmHg 41%
    13:00 +7°C° 0 mm 4 mps 757 mmHg 40%
    14:00 +8°C° 0 mm 3 mps 757 mmHg 40%
    15:00 +8°C° 0 mm 3 mps 757 mmHg 40%
    16:00 +8°C° 0 mm 3 mps 757 mmHg 41%
    17:00 +7°C° 0 mm 3 mps 757 mmHg 47%
    18:00 +4°C° 0 mm 3 mps 757 mmHg 53%
    19:00 +3°C° 0 mm 3 mps 758 mmHg 59%
    20:00 +2°C° 0 mm 3 mps 758 mmHg 61%
    21:00 +2°C° 0 mm 3 mps 758 mmHg 63%
    22:00 +1°C° 0 mm 3 mps 759 mmHg 64%
    23:00 +1°C° 0 mm 3 mps 758 mmHg 65%

    2 April, Thursday

    Time Temperature Precipitation Wind Pressure Humidity
    00:00 0°C° 0 mm 3 mps 758 mmHg 65%
    01:00 +1°C° 0 mm 2 mps 758 mmHg 65%
    02:00 +1°C° 0 mm 2 mps 757 mmHg 64%
    03:00 +1°C° 0 mm 2 mps 757 mmHg 63%
    04:00 +1°C° 0 mm 2 mps 757 mmHg 63%
    05:00 +1°C° 0 mm 2 mps 757 mmHg 59%
    06:00 +2°C° 0 mm 2 mps 756 mmHg 54%
    07:00 +3°C° 0 mm 2 mps 756 mmHg 50%
    08:00 +6°C° 0 mm 1 mps 756 mmHg 45%
    09:00 +8°C° 0 mm 1 mps 755 mmHg 39%
    10:00 +11°C° 0 mm 1 mps 755 mmHg 33%
    11:00 +11°C° 0 mm 1 mps 755 mmHg 33%
    12:00 +12°C° 0 mm 1 mps 755 mmHg 33%
    13:00 +13°C° 0 mm 2 mps 754 mmHg 33%
    14:00 +13°C° 0 mm 2 mps 754 mmHg 36%
    15:00 +12°C° 0 mm 2 mps 754 mmHg 39%
    16:00 +12°C° 0 mm 2 mps 753 mmHg 42%
    17:00 +10°C° 0 mm 1 mps 753 mmHg 48%
    18:00 +8°C° 0 mm 1 mps 753 mmHg 55%
    19:00 +5°C° 0 mm 0 mps 754 mmHg 62%
    20:00 +5°C° 0 mm 0 mps 754 mmHg 61%
    21:00 +6°C° 0 mm 1 mps 754 mmHg 61%
    22:00 +6°C° 0 mm 1 mps 754 mmHg 61%
    23:00 +6°C° 0 mm 1 mps 754 mmHg 61%
    Show more